User: anonymous   Login
Location: Carri�res
(48.9069°N, 2.1792°E)
Time: 03:47:28
(UTC+00:00)
Language:

Cosmos 1674 - Orbit

View from above orbital plane
View from above orbital plane
View from above satellite
View from above satellite

Ground track
Ground track

The orbit data is extracted from the following two-line orbital elements,

1 15944U 85069A   21107.48935342  .00000972  00000-0  43107-4 0  9997
2 15944  82.5044 280.1597 0015252 295.0934  64.8718 15.20287358950365
Epoch (UTC): 17 April 2021 11:44:40
Eccentricity: 0.0015252
inclination: 82.5044°
perigee height: 494 km
apogee height: 515 km
right ascension of ascending node: 280.1597°
argument of perigee: 295.0934°
revolutions per day: 15.20287358
mean anomaly at epoch: 64.8718°
orbit number at epoch: 95036

The dashed part of the orbit path shows where the satellite is in the earth's shadow,  

DLR